Terminal Aerodrome Forecast
Issued by NWS Jackson, KY

Home | Current Version | Previous Version | Text Only | Print | Product List | Glossary On
Versions: 1 2 3 4 5 6 7 8 9 10 11 12 13 14 15 16 17
208
FTUS43 KJKL 280843 AAA
TAFLOZ
TAF AMD
KLOZ 280843Z 2809/2906 VRB03KT 6SM BR VCSH SCT035 BKN060
     FM281300 VRB06KT 3SM SHRA BR VCTS SCT020CB OVC040
     FM281600 22008KT 3SM +SHRA BR VCTS SCT008 BKN020CB OVC040
     FM282200 25005KT 2SM +SHRA BR VCTS SCT005 OVC015CB
     FM290000 26005KT 2SM +SHRA BR VCTS BKN008CB OVC015=

USA.gov is the U.S. government's official web portal to all federal, state and local government web resources and services.